Date String (YYYY-MM-DD hh:mm:ss) UTC,Instrument flags,Ambient pressure (hPa),Sample flow (lpm),Bypass flow (lpm),Sample temperature (°C),Ambient temperature (°C),ASC tube jacket temperature (°C),LED temperature (°C),Box temperature (°C),Sample RH (%),Span deviation,Mass concentration (μg/m³),Mass concentration (μg/m³),Mass concentration (μg/m³)
DateTimeUTC,F1_M11,P_M11,Q1_M11,Q2_M11,T1_M11,T2_M11,T3_M11,T4_M11,T5_M11,U1_M11,ZSPAN_M11,X2_M11,X0_M11,X1_M11
2023-05-10 11:00:00,,0828.9,5.00,0.00,29.3,27.3,00.0,37.8,30.9,26.5,0002.3,0007.46,0013.19,0006.41
2023-05-10 11:01:00,,0829.0,5.00,0.00,29.3,27.3,00.0,37.8,30.9,26.5,0001.7,0007.49,0013.33,0006.42
2023-05-10 11:02:00,,0829.0,5.01,0.00,29.3,27.3,00.0,37.8,30.9,26.5,0001.1,0007.53,0013.46,0006.43
2023-05-10 11:03:00,,0828.9,5.01,0.00,29.3,27.4,00.0,37.8,30.9,26.5,0000.8,0007.58,0013.57,0006.45
2023-05-10 11:04:00,,0828.9,5.00,0.00,29.3,27.4,00.0,37.8,30.9,26.5,0000.5,0007.56,0013.51,0006.46
2023-05-10 11:05:00,,0828.9,4.99,0.00,29.3,27.4,00.0,37.8,31.0,26.5,0000.4,0007.57,0013.37,0006.48
2023-05-10 11:06:00,,0828.8,4.99,0.00,29.3,27.4,00.0,37.8,31.0,26.5,0000.2,0007.59,0013.27,0006.49
2023-05-10 11:07:00,,0828.8,5.00,0.00,29.3,27.5,00.0,37.8,31.0,26.6,0000.2,0007.62,0013.32,0006.52
2023-05-10 11:08:00,,0828.7,5.01,0.00,29.3,27.4,00.0,37.8,31.0,26.5,0000.0,0007.71,0012.57,0006.56
2023-05-10 11:09:00,,0828.8,5.01,0.00,29.3,27.4,00.0,37.8,30.9,26.5,-000.1,0007.80,0012.74,0006.63
2023-05-10 11:10:00,,0828.8,5.00,0.00,29.3,27.4,00.0,37.8,30.9,26.6,-000.3,0007.88,0013.08,0006.70
2023-05-10 11:11:00,,0828.8,4.99,0.00,29.3,27.4,00.0,37.8,30.9,26.6,-000.5,0007.95,0013.32,0006.75
2023-05-10 11:12:00,,0828.8,5.00,0.00,29.3,27.3,00.0,37.8,30.9,26.6,-000.5,0007.90,0013.53,0006.74
2023-05-10 11:13:00,,0828.8,5.00,0.00,29.2,27.3,00.0,37.7,30.9,26.7,-000.6,0007.81,0013.75,0006.70
2023-05-10 11:14:00,,0828.8,5.01,0.00,29.2,27.4,00.0,37.7,30.9,26.7,-000.6,0007.72,0013.54,0006.67
2023-05-10 11:15:00,,0828.7,5.00,0.00,29.2,27.4,00.0,37.7,30.9,26.7,-000.7,0007.71,0013.74,0006.62
2023-05-10 11:16:00,,0828.8,5.01,0.00,29.3,27.4,00.0,37.7,30.9,26.7,-000.7,0007.70,0013.83,0006.59
2023-05-10 11:17:00,,0828.8,5.01,0.00,29.3,27.5,00.0,37.7,30.9,26.7,-000.8,0007.67,0013.81,0006.55
2023-05-10 11:18:00,,0828.8,5.00,0.00,29.3,27.5,00.0,37.7,30.9,26.6,-000.7,0007.59,0013.68,0006.50
2023-05-10 11:19:00,,0828.8,5.00,0.00,29.3,27.5,00.0,37.7,30.9,26.6,-000.5,0007.49,0013.49,0006.43
2023-05-10 11:20:00,,0828.8,5.00,0.00,29.3,27.5,00.0,37.7,30.9,26.6,-000.5,0007.43,0013.36,0006.37
2023-05-10 11:21:00,,0828.8,5.00,0.00,29.3,27.6,00.0,37.7,30.9,26.6,-000.9,0007.36,0013.09,0006.32
2023-05-10 11:22:00,,0828.8,5.00,0.00,29.3,27.6,00.0,37.7,31.0,26.5,-000.9,0007.29,0012.66,0006.25
2023-05-10 11:23:00,,0828.8,5.00,0.00,29.3,27.6,00.0,37.7,31.0,26.4,-000.9,0007.29,0012.28,0006.25
2023-05-10 11:24:00,,0828.8,4.99,0.00,29.3,27.7,00.0,37.7,31.0,26.4,-000.4,0007.31,0011.88,0006.25
2023-05-10 11:25:00,,0828.7,4.99,0.00,29.3,27.7,00.0,37.7,31.0,26.4,-000.3,0007.31,0012.07,0006.25
2023-05-10 11:26:00,,0828.8,5.00,0.00,29.3,27.7,00.0,37.7,31.0,26.4,-000.6,0007.28,0011.89,0006.26
2023-05-10 11:27:00,,0828.8,5.01,0.00,29.3,27.8,00.0,37.7,31.0,26.4,-000.3,0007.26,0011.72,0006.25
2023-05-10 11:28:00,,0828.8,5.01,0.00,29.4,27.8,00.0,37.7,31.0,26.4,-000.4,0007.29,0011.76,0006.27
2023-05-10 11:29:00,,0828.8,5.00,0.00,29.4,27.8,00.0,37.7,31.0,26.4,-000.4,0007.33,0011.85,0006.31
2023-05-10 11:30:00,,0828.8,4.99,0.00,29.4,27.8,00.0,37.8,31.0,26.4,-000.7,0007.34,0012.33,0006.33
2023-05-10 11:31:00,,0828.8,4.99,0.00,29.4,27.8,00.0,37.8,31.1,26.3,-000.5,0007.30,0012.35,0006.33
2023-05-10 11:32:00,,0828.8,5.00,0.00,29.4,27.9,00.0,37.8,31.1,26.3,-000.2,0007.32,0012.43,0006.31
2023-05-10 11:33:00,,0828.8,5.00,0.00,29.4,27.9,00.0,37.8,31.1,26.3,-000.1,0007.27,0012.47,0006.28
2023-05-10 11:34:00,,0828.7,5.00,0.00,29.4,27.8,00.0,37.8,31.1,26.3,-000.3,0007.27,0012.50,0006.28
2023-05-10 11:35:00,,0828.8,5.00,0.00,29.4,27.8,00.0,37.8,31.1,26.3,-000.3,0007.30,0012.52,0006.31
2023-05-10 11:36:00,,0829.0,5.00,0.00,29.4,27.8,00.0,37.8,31.1,26.3,0000.2,0007.36,0012.35,0006.35
2023-05-10 11:37:00,,0829.0,5.00,0.00,29.4,27.8,00.0,37.8,31.1,26.2,0000.5,0007.37,0012.25,0006.38
2023-05-10 11:38:00,,0829.0,5.00,0.00,29.4,27.8,00.0,37.8,31.1,26.1,0000.4,0007.38,0012.31,0006.40
2023-05-10 11:39:00,,0829.0,4.98,0.00,29.4,27.8,00.0,37.8,31.1,26.1,0000.3,0007.34,0012.86,0006.38
2023-05-10 11:40:00,,0828.9,5.00,0.00,29.4,27.8,00.0,37.8,31.1,26.1,0000.2,0007.30,0013.05,0006.35
2023-05-10 11:41:00,,0828.9,5.01,0.00,29.4,27.8,00.0,37.8,31.1,26.1,0000.1,0007.32,0012.60,0006.35
2023-05-10 11:42:00,,0828.9,5.01,0.00,29.4,27.9,00.0,37.8,31.1,26.1,-000.1,0007.34,0012.43,0006.38
2023-05-10 11:43:00,,0829.0,5.00,0.00,29.4,27.9,00.0,37.8,31.1,26.0,-000.0,0007.33,0012.53,0006.40
2023-05-10 11:44:00,,0829.0,5.00,0.00,29.5,27.9,00.0,37.8,31.1,26.0,-000.1,0007.33,0012.45,0006.42
2023-05-10 11:45:00,,0828.9,5.00,0.00,29.5,27.9,00.0,37.8,31.1,25.9,-000.1,0007.31,0012.37,0006.43
2023-05-10 11:46:00,,0829.0,5.00,0.00,29.5,27.9,00.0,37.8,31.1,25.7,0000.0,0007.35,0012.51,0006.43
2023-05-10 11:47:00,,0829.0,5.00,0.00,29.5,27.9,00.0,37.8,31.1,25.6,-000.5,0007.32,0012.48,0006.43
2023-05-10 11:48:00,,0829.0,4.99,0.00,29.5,27.9,00.0,37.8,31.1,25.3,-000.7,0007.33,0012.48,0006.43
2023-05-10 11:49:00,,0829.0,5.00,0.00,29.5,27.9,00.0,37.8,31.1,25.1,-001.0,0007.27,0012.36,0006.41
2023-05-10 11:50:00,,0829.1,5.01,0.00,29.5,27.9,00.0,37.9,31.1,25.1,-000.8,0007.30,0011.92,0006.43
2023-05-10 11:51:00,,0829.1,5.00,0.00,29.5,27.9,00.0,37.9,31.1,25.2,-000.6,0007.33,0011.55,0006.48
2023-05-10 11:52:00,,0829.1,4.98,0.00,29.5,27.9,00.0,37.9,31.1,25.3,-000.3,0007.37,0011.73,0006.51
2023-05-10 11:53:00,,0829.1,5.01,0.00,29.5,27.9,00.0,37.9,31.1,25.1,0000.2,0007.37,0011.73,0006.52
2023-05-10 11:54:00,,0829.1,5.00,0.00,29.5,27.9,00.0,37.9,31.1,24.9,0000.1,0007.40,0011.62,0006.54
2023-05-10 11:55:00,,0829.1,4.99,0.00,29.5,27.9,00.0,37.9,31.1,24.9,0000.2,0007.41,0011.56,0006.58
2023-05-10 11:56:00,,0829.1,4.99,0.00,29.5,27.9,00.0,37.9,31.2,24.9,0000.5,0007.39,0011.46,0006.60
2023-05-10 11:57:00,,0829.1,5.00,0.00,29.5,27.9,00.0,37.9,31.1,25.0,0000.7,0007.38,0011.39,0006.62
2023-05-10 11:58:00,,0829.1,5.00,0.00,29.5,27.9,00.0,37.9,31.1,25.1,0001.0,0007.41,0011.46,0006.63
2023-05-10 11:59:00,,0829.1,5.01,0.00,29.5,27.9,00.0,37.9,31.2,25.2,0001.3,0007.43,0011.49,0006.64
